Location: Central Falls
(41.8900°N, 71.3929°W)
Time: 07:25:07
(UTC+00:00)

Tiros 1 despin weight - Pass Details

Date: 11 December 2023
Orbit: 581 x 624 km, 48.2° (Epoch: 29 February)

Event Time Altitude Azimuth Distance (km) Brightness Sun altitude
Rises 02:41:24 0° 294° (WNW) 2,797 - -59.1°
Reaches altitude 10° 02:43:46 10° 287° (WNW) 1,895 - -59.5°
Maximum altitude 02:47:49 40° 217° (SW) 856 - -60.2°
Drops below altitude 10° 02:51:54 10° 148° (SSE) 1,896 - -60.8°
Sets 02:54:16 0° 141° (SE) 2,798 - -61.2°
